IK1AMC-3 Weather Reports


time (UTC)temp
C
wind
direction
speed
KPH
gust
KPH
rain 1hr
cm
rain 24hr
cm
rain mn
cm
humidity
%
barometer
mb
20260507001832 16 0.0 0.0 0.00 0.00 0.00 81 1010.2
20260506235831 16 0.0 0.0 0.00 0.00 0.00 80 1010.2
20260506233830 16 0.0 0.0 0.00 0.00 0.00 81 1009.9
20260506231829 16 0.0 0.0 0.00 0.00 0.00 78 1010.1
20260506225827 17 0.0 0.0 0.00 0.00 0.00 75 1010.0
20260506223826 16 0.0 0.0 0.00 0.00 0.00 78 1009.9
20260506221825 17 0.0 0.0 0.00 0.00 0.00 76 1009.9
20260506215823 16 0.0 0.0 0.00 0.00 0.00 77 1009.9
20260506213822 16 0.0 0.0 0.00 0.00 0.00 77 1009.9
20260506211821 16 0.0 0.0 0.00 0.00 0.00 78 1009.8
20260506205820 17 0.0 0.0 0.00 0.00 0.00 76 1009.6
20260506203818 16 0.0 0.0 0.00 0.00 0.00 76 1009.6
20260506201817 17 0.0 0.0 0.00 0.00 0.00 74 1009.4
20260506195816 17 0.0 0.0 0.00 0.00 0.00 72 1009.2
20260506193814 17 0.0 0.0 0.00 0.00 0.00 74 1008.7
20260506191813 17 0.0 0.0 0.00 0.00 0.00 71 1008.4
20260506185812 17 0.0 0.0 0.00 0.00 0.00 70 1008.2
20260506183810 17 0.0 0.0 0.00 0.00 0.00 69 1007.8
20260506181809 17 0.0 0.0 0.00 0.00 0.00 71 1007.5
20260506175808 17 0.0 0.0 0.00 0.00 0.00 71 1007.1
20260506173806 18 0.0 0.0 0.00 0.00 0.00 66 1007.0
20260506171805 18 0.0 0.0 0.00 0.00 0.00 60 1006.9
20260506165804 18 0.0 0.0 0.00 0.00 0.00 58 1006.9
20260506163802 18 0.0 0.0 0.00 0.00 0.00 58 1006.6
20260506161801 19 0.0 0.0 0.00 0.00 0.00 63 1006.7
20260506155800 19 0.0 0.0 0.00 0.00 0.00 62 1006.8
20260506153758 20 0.0 0.0 0.00 0.00 0.00 63 1006.5
20260506151757 20 0.0 0.0 0.00 0.00 0.00 62 1006.6
20260506145756 20 0.0 0.0 0.00 0.00 0.00 61 1006.6
20260506143754 20 0.0 0.0 0.00 0.00 0.00 58 1006.6
20260506141753 20 0.0 0.0 0.00 0.00 0.00 59 1006.6
20260506135752 20 0.0 0.0 0.00 0.00 0.00 56 1006.8
20260506133750 20 0.0 0.0 0.00 0.00 0.00 56 1007.0
20260506131749 21 0.0 0.0 0.00 0.00 0.00 55 1007.1
20260506125748 21 0.0 0.0 0.00 0.00 0.00 58 1007.4
20260506123746 21 0.0 0.0 0.00 0.00 0.00 55 1007.2
20260506121745 20 0.0 0.0 0.00 0.00 0.00 57 1007.2
20260506115744 21 0.0 0.0 0.00 0.00 0.00 56 1007.3
20260506113742 20 0.0 0.0 0.00 0.00 0.00 60 1007.4
20260506111741 20 0.0 0.0 0.00 0.00 0.00 61 1007.6
20260506105739 20 0.0 0.0 0.00 0.00 0.00 64 1007.8
20260506103738 20 0.0 0.0 0.00 0.00 0.00 67 1007.8
20260506101737 18 0.0 0.0 0.00 0.00 0.00 69 1007.9
20260506095735 18 0.0 0.0 0.00 0.00 0.00 69 1007.8
20260506093734 18 0.0 0.0 0.00 0.00 0.00 69 1007.7
20260506091733 18 0.0 0.0 0.00 0.00 0.00 66 1007.6
20260506085732 18 0.0 0.0 0.00 0.00 0.00 67 1007.5
20260506083730 18 0.0 0.0 0.00 0.00 0.00 67 1007.4
20260506081729 17 0.0 0.0 0.00 0.00 0.00 71 1007.4
20260506071725 17 0.0 0.0 0.00 0.00 0.00 76 1007.3
20260506061721 15 0.0 0.0 0.00 0.00 0.00 86 1006.5
20260506043715 15 0.0 0.0 0.00 0.00 0.00 86 1007.1
20260506041713 15 0.0 0.0 0.00 0.00 0.00 85 1007.4
20260506035712 15 0.0 0.0 0.00 0.00 0.00 80 1007.9
20260506033711 15 0.0 0.0 0.00 0.00 0.00 81 1008.2
20260506031709 15 0.0 0.0 0.00 0.00 0.00 81 1008.2
20260506025708 15 0.0 0.0 0.00 0.00 0.00 79 1008.0
20260506023707 15 0.0 0.0 0.00 0.00 0.00 80 1008.0
20260506021706 15 0.0 0.0 0.00 0.00 0.00 79 1008.2
20260506015704 15 0.0 0.0 0.00 0.00 0.00 81 1008.6
20260506013703 15 0.0 0.0 0.00 0.00 0.00 82 1008.9
20260506011702 15 0.0 0.0 0.00 0.00 0.00 80 1009.1
20260506005700 15 0.0 0.0 0.00 0.00 0.00 82 1008.9
20260506003659 15 0.0 0.0 0.00 0.00 0.00 81 1009.7